Home > Weather > Bern > Past weeks

Flag for Switzerland Past Weather in Bern, Bern, Switzerland — Yesterday and Last 2 Weeks

Now
86 °F

Sunny.


Feels Like: 85 °F
Forecast: 57 / 72 °F
Wind: 6 mph from Northwest

Location: Bern / Belp

Current Time: Aug 28, 2016 at 6:47:09 PM

Latest Report: Aug 28, 2016 at 5:50 PM


Visibility: 10 mi

Pressure: 30.07 "Hg (28.32 "Hg at 533m altitude)

Humidity: 40%

Dew Point: 59 °F

Location of BernLocation

Past Weather in Bern — Graph

°F

Bern Temperature Yesterday

Maximum temperature yesterday: 90 °F (at 5:20 PM)
Minimum temperature yesterday: 57 °F (at 6:20 AM)
Average temperature yesterday: 74 °F

High & Low Weather Summary for the Past Weeks

 TemperatureHumidityPressure
High90 °F (Aug 25, 5:20 PM)100% (Aug 14, 5:20 AM)30.39 "Hg (Aug 14, 5:20 AM)
Low45 °F (Aug 22, 6:20 AM)33% (Aug 14, 5:20 PM)29.86 "Hg (Aug 17, 4:20 PM)
Average68 °F77%30.11 "Hg
* Reported Aug 13 5:20 PM — Aug 28 5:20 PM, Bern, Weather by CustomWeather, © 2016

Note: Actual official high and low records may vary slightly from our data, if they occured in-between our weather recording intervals... More about our weather records

Advertising

Bern Weather History for the Previous 24 Hours

Scroll right to see more
 ConditionsComfort  
Time TempWeatherWind HumidityBarometerVisibility
5:20 PM
Sun, Aug 28
90 °FSunny.6 mph33%30.07 "Hg10 mi
4:50 PM88 °FPassing clouds.3 mph38%30.07 "HgN/A
4:20 PM88 °FSunny.3 mph38%30.07 "Hg10 mi
3:50 PM88 °FSunny.3 mph35%30.07 "Hg10 mi
3:20 PM88 °FPassing clouds.7 mph35%30.07 "HgN/A
2:50 PM88 °FPassing clouds.5 mph38%30.09 "HgN/A
2:20 PM86 °FPassing clouds.5 mph40%30.09 "HgN/A
1:50 PM84 °FSunny.3 mph48%30.09 "Hg10 mi
1:20 PM82 °FSunny.3 mph48%30.12 "Hg10 mi
12:50 PM81 °FSunny.2 mph51%30.12 "Hg10 mi
12:20 PM81 °FSunny.2 mph51%30.12 "Hg10 mi
11:50 AM81 °FSunny.2 mph54%30.12 "Hg10 mi
11:20 AM77 °FSunny.2 mph65%30.15 "Hg10 mi
10:50 AM75 °FSunny.3 mph69%30.15 "Hg10 mi
10:20 AM75 °FSunny.2 mph65%30.15 "Hg10 mi
9:50 AM73 °FPassing clouds.5 mph69%30.15 "HgN/A
9:20 AM72 °FSunny.6 mph73%30.15 "Hg10 mi
8:50 AM70 °FPassing clouds.3 mph73%30.15 "HgN/A
8:20 AM66 °FSunny.1 mph88%30.15 "Hg10 mi
7:50 AM64 °FSunny.No wind94%30.12 "Hg10 mi
7:20 AM63 °FPassing clouds.5 mph94%30.12 "HgN/A
6:50 AM63 °FPassing clouds.6 mph94%30.12 "HgN/A
6:20 AM63 °FPassing clouds.8 mph94%30.12 "HgN/A
5:50 AM63 °FPassing clouds.6 mph94%30.12 "HgN/A
5:20 AM63 °FPassing clouds.3 mph94%30.12 "HgN/A
4:50 AM64 °FMild.1 mph88%30.12 "HgN/A
4:20 AM63 °FPassing clouds.3 mph94%30.12 "HgN/A
3:50 AM66 °FPassing clouds.2 mph83%30.12 "HgN/A
3:20 AM68 °FPassing clouds.2 mph78%30.12 "HgN/A
2:50 AM68 °FPassing clouds.8 mph83%30.12 "HgN/A
2:20 AM70 °FSprinkles. Partly cloudy.5 mph78%30.12 "HgN/A
1:50 AM70 °FThundershowers. Passing clouds.7 mph83%30.12 "HgN/A
1:20 AM72 °FThunderstorms. Passing clouds.8 mph78%30.12 "HgN/A
12:50 AM72 °FPassing clouds.8 mph83%30.12 "HgN/A
12:20 AM70 °FPassing clouds.5 mph88%30.12 "HgN/A
11:50 PM
Sat, Aug 27
70 °FPassing clouds.7 mph88%30.12 "HgN/A
11:20 PM70 °FMild.7 mph94%30.09 "HgN/A
10:50 PM73 °FPassing clouds.8 mph83%30.09 "HgN/A
10:20 PM73 °FMild.7 mph83%30.09 "HgN/A
9:50 PM73 °FClear.7 mph83%30.09 "Hg10 mi
9:20 PM77 °FClear.9 mph74%30.09 "Hg10 mi
8:50 PM79 °FSunny.7 mph74%30.07 "Hg10 mi
8:20 PM81 °FSunny.8 mph70%30.07 "Hg10 mi
7:50 PM82 °FSunny.2 mph66%30.07 "Hg10 mi
7:20 PM84 °FSunny.6 mph58%30.07 "Hg10 mi
6:50 PM84 °FSunny.3 mph58%30.07 "Hg10 mi
6:20 PM90 °FPassing clouds.3 mph49%30.07 "HgN/A
Weather by CustomWeather, © 2016

See weather overviewHow to use our weather pages